Location: Newark
(44.2886°N, 4.8431°E)
Time: 14:36:22
(UTC+00:00)

ZACube-1 - Pass Details

Date: 01 December 2020
Orbit: 584 x 665 km, 97.6° (Epoch: 14 January)

Event Time Altitude Azimuth Distance (km) Brightness Sun altitude
Rises 16:30:47 0° 182° (S) 2,860 ? -5.2°
Reaches altitude 10° 16:33:03 10° 189° (S) 1,948 ? -5.6°
Maximum altitude 16:37:05 44° 261° (W) 838 ? -6.3°
Drops below altitude 10° 16:41:05 10° 334° (NNW) 1,929 ? -6.9°
Sets 16:43:20 0° 341° (NNW) 2,829 ? -7.3°
